RH
43 45 45 48 52 50 49 51 51 49 48 51 54 54 46 41 33 32 33 33 33 33 34 34 31 27 30 32 30 24 25 26
44 46 48 49 50 55 51 54 56 53 51 52 55 51 43 37 36 35 35 35 35 35 35 34 33 29 31 32 31 28 29 25
44 46 50 52 55 55 57 59 60 58 55 52 53 47 41 39 38 38 38 37 36 38 36 36 36 31 32 33 32 34 32 28
46 48 53 52 54 57 59 59 64 61 58 54 51 50 45 42 42 42 40 39 38 40 38 36 37 33 34 34 37 34 33 32
49 49 54 55 54 55 56 59 60 62 59 57 54 55 54 51 47 47 46 43 40 40 40 38 43 38 34 40 38 34 32 33
50 49 50 54 50 50 52 57 58 60 60 60 62 59 57 56 53 53 52 48 44 42 43 47 46 42 39 40 39 36 34 34
53 48 50 51 50 47 48 50 56 58 59 62 61 61 59 59 57 59 60 55 48 50 52 51 49 42 39 38 40 38 36 36
51 48 50 51 47 48 47 46 50 57 61 62 61 62 60 59 60 64 64 59 55 54 55 53 51 47 43 41 41 40 38 38
46 43 47 49 51 52 51 48 48 50 58 63 60 60 58 60 62 66 66 64 57 55 53 52 50 48 46 43 42 42 40 39
47 47 45 47 51 54 53 52 48 44 49 59 60 59 57 60 62 65 66 60 57 55 53 50 51 50 47 45 42 43 43 42
47 47 44 44 52 53 54 54 52 49 44 51 57 58 57 58 60 63 62 58 55 54 52 52 53 53 49 46 43 43 44 44
48 50 47 46 50 52 53 53 52 52 49 45 51 55 57 58 60 60 60 57 53 52 53 53 54 54 52 50 46 46 46 47
44 48 47 49 48 48 49 48 50 50 50 49 47 51 57 60 59 59 60 58 54 50 53 55 55 55 54 53 50 50 50 51
40 46 50 49 47 45 46 47 49 50 52 50 49 47 51 59 58 56 59 57 53 49 48 52 54 54 53 53 52 50 48 50
42 44 47 50 45 47 47 49 52 55 53 49 48 47 47 52 58 60 60 58 55 51 47 46 51 53 51 49 51 48 49 51
42 47 49 51 51 47 45 44 46 46 48 49 50 50 47 50 54 61 64 62 59 55 51 48 49 49 52 49 49 48 49 53
38 45 52 54 56 53 51 49 47 48 49 51 51 50 50 52 54 55 63 67 65 62 57 51 50 52 52 56 55 53 53 50
41 42 50 55 57 57 56 56 52 51 49 50 51 49 49 50 55 56 58 62 68 70 66 62 58 57 59 60 58 57 56 55
49 48 48 53 59 59 59 59 61 59 56 52 54 53 50 50 52 55 56 57 61 65 71 71 71 66 67 66 66 66 67 65
51 51 51 51 53 56 59 63 63 63 63 61 60 59 55 56 56 57 60 62 64 67 69 71 71 68 66 66 67 66 70 72